Terminal Aerodrome Forecast
Issued by NWS

Home | Current Version | Previous Version | Text Only | Print | Product List | Glossary On
Versions: 1 2 3 4 5 6 7 8 9 10 11 12 13
000
FTUS45 KGJT 211120
TAFMTJ
TAF
KMTJ 211120Z 2112/2212 35005KT P6SM VCSH FEW050 OVC100
     FM211400 30008KT P6SM VCSH SCT025 OVC030
     FM211800 30014KT 2SM BR BKN020 BKN025
     FM212300 31012KT 3SM BR BKN025 BKN035=

USA.gov is the U.S. government's official web portal to all federal, state and local government web resources and services.